STARLINK-4316, 53471

Orbit data source: Space-Track

STARLINK-4316, 53471 is a payload satellite owned by SpaceX/Seattle (US) in SSO that was launched on Fri, 12 Aug 2022 UTC via an FALCON 9 launch vehicle from the Air Force Western Test Range (AFWTR). Payload-class satellites include a variety of spacecraft equipped with specific instruments for various scientific and technological missions. These include communications satellites like Starlink; space stations such as the ISS; scientific satellites like the Hubble; Earth observation satellites from companies like Planet Labs, Umbra, and HawkEye 360; GPS; miniature CubeSats for education and research; and military/defense satellites.

Loading next visibility...
Identifier
53471, 2022-099G
Orbit
SSO
Country
Flag of USUS
Related business
Manufacturer
SpaceX/Seattle
Mission
Operational Commercial Communications
Bus & Motor
STARLINK, Unknown motor
Mass
300 kg wet, ~275 kg dry
Launch date (UTC)
2022-08-12 (3 years ago)
Launch vehicle
FALCON 9
Launch site
Air Force Western Test Range (AFWTR)
Object type
Payload
Rocket body
Debris
Shape & HBR
Box + 1 Pan, 10.1 m
Radar Cross Section
13.562 m², Large (>1 m²)

Expand to show TLE details & history
Last TLE update: 12 hours ago

TLE from 12 hours ago
0 STARLINK-4316
1 53471U 22099G   25346.89700474  .00000076  00000-0  94602-5 0  9990
2 53471  97.6039 105.6364 0000673 103.0372 257.0930 15.05644257182986
Epoch: 2025-12-12T21:31Z
TLE epoch observation values (Epoch: 2025-12-12T21:31:41.209Z)
Latitude
-0.00002°
Longitude
60.88266°
Altitude
552.698 km
Speed
7.585 km/s
True Right ascension
07h 02m 32s
True Declination
0° 00' 00"
Sunlit
Object was in full shadow at epoch
Visualization orbit readout
Latitude
Unknown
Longitude
Unknown
Altitude
Unknown
Speed
Unknown
Apparent Right ascension
Unknown
Apparent Declination
Unknown
Sunlit
N/A
Visualization observer readout
Local Sidereal Time
07:34:22
Azimuth
Unknown
Elevation
Unknown
Doppler factor
Unknown
Orbital elements
Apogee altitude
546.988 km
Perigee altitude
546.056 km
Semi-major axis
6,924.659 km
Eccentricity
0.00007
Inclination
97.6039°
RAAN
105.6364°
Arg. of periapsis
103.0372°
True anomaly
257.08548°
Mean anomaly
257.093°
Eccentric anomaly
257.08924°
Mean motion
3.76657 °/min
Orbital period
95.58 mins
BSTAR
0.0000094602
Loading maneuver chart data...
Computing Atmospheric mass density...
Loading historical data...
Loading historical data...
Loading historical data...
Loading historical data...
Loading historical data...
Loading historical data...
Loading historical data...

Documentation

Showing up to 5 results
|